This is the latest recevied weather packets stored in our database for station/object KV9E. If no packets are shown the sender has not sent any weather packets the latest 1 day(s).
| Time | Temp. | Humidity | Pressure | Rain* | Wind** | Luminosity | Snow |
|---|---|---|---|---|---|---|---|
| 1778043840 | 17.78° C | 70% | 1008.6 hPa | 0 mm | 0.89 m/s, 138° | 0 W/m² | - |
| 1778043537 | 17.78° C | 71% | 1008.9 hPa | 0 mm | 0.45 m/s, 133° | 0 W/m² | - |
| 1778043234 | 17.78° C | 70% | 1009 hPa | 0 mm | 0 m/s | 0 W/m² | - |
| 1778042931 | 17.78° C | 70% | 1008.9 hPa | 0 mm | 1.79 m/s, 81° | 0 W/m² | - |
| 1778042629 | 17.78° C | 70% | 1008.8 hPa | 0 mm | 0.89 m/s, 153° | 0 W/m² | - |
| 1778042325 | 17.78° C | 70% | 1008.9 hPa | 0 mm | 0 m/s | 0 W/m² | - |
| 1778042022 | 17.78° C | 70% | 1009 hPa | 0 mm | 1.34 m/s, 134° | 0 W/m² | - |
| 1778041721 | 17.78° C | 71% | 1009.4 hPa | 0 mm | 0 m/s | 0 W/m² | - |
| 1778041420 | 17.78° C | 70% | 1009.4 hPa | 0 mm | 0.89 m/s, 169° | 0 W/m² | - |
| 1778041118 | 17.78° C | 70% | 1009.1 hPa | 0 mm | 0 m/s | 0 W/m² | - |
| 1778040814 | 17.78° C | 70% | 1009.3 hPa | 0 mm | 0.89 m/s, 103° | 0 W/m² | - |
| 1778040512 | 17.78° C | 70% | 1009.6 hPa | 0 mm | 1.34 m/s, 193° | 0 W/m² | - |
| 1778040209 | 17.78° C | 70% | 1009.4 hPa | 0 mm | 0 m/s | 0 W/m² | - |
| 1778039905 | 17.78° C | 69% | 1009.4 hPa | 0 mm | 0 m/s | 0 W/m² | - |
| 1778039603 | 17.78° C | 69% | 1008.9 hPa | 0 mm | 0 m/s | 0 W/m² | - |
| 1778039300 | 17.78° C | 69% | 1009.3 hPa | 0 mm | 0 m/s | 0 W/m² | - |
| 1778038997 | 17.78° C | 69% | 1009.4 hPa | 0 mm | 1.79 m/s, 134° | 0 W/m² | - |
| 1778038694 | 17.78° C | 69% | 1009.3 hPa | 0 mm | 0.89 m/s, 159° | 0 W/m² | - |
| 1778038391 | 17.78° C | 69% | 1009.7 hPa | 0 mm | 0.89 m/s, 95° | 0 W/m² | - |
| 1778038087 | 17.78° C | 68% | 1009.3 hPa | 0 mm | 0 m/s | 0 W/m² | - |
| 1778037785 | 17.78° C | 69% | 1009.4 hPa | 0 mm | 0 m/s | 0 W/m² | - |
| 1778037482 | 17.78° C | 68% | 1009.1 hPa | 0 mm | 0.45 m/s, 192° | 0 W/m² | - |
| 1778037179 | 17.78° C | 68% | 1009.3 hPa | 0 mm | 0 m/s | 0 W/m² | - |
| 1778036877 | 17.78° C | 67% | 1009.4 hPa | 0 mm | 0.45 m/s, 166° | 0 W/m² | - |
| 1778036575 | 17.78° C | 67% | 1009.5 hPa | 0 mm | 0.45 m/s, 160° | 0 W/m² | - |
* Rain latest hour (hover to see other rain measurements)
** Current wind speed in m/s (hover to see current wind gust speed)